Tracking 19281 objects as of 16-Nov-2018
HD Live streaming from Space Station
objects crossing your sky now

FLOCK 3P 14

Track FLOCK 3P 14 now!
10-day predictions
FLOCK 3P 14 is classified as:


NORAD ID: 42012
Int'l Code: 2017-008BS
Perigee: 492.9 km
Apogee: 502.6 km
Inclination: 97.4 °
Period: 94.4 minutes
Semi major axis: 6868 km
RCS: Unknown
Launch date: February 15, 2017
Source: United States (US)
Launch site: SRIHARIKOTA (SRI)
aabbcc
Your satellite tracking list
Your tracking list is empty




NASA's NSSDC Master Catalog

Two Line Element Set (TLE):
1 42012U 17008BS  18319.93984793  .00001050  00000-0  44909-4 0  9995
2 42012  97.4354  24.0583 0007042 191.0315 169.0769 15.25050804 97035
Source of the keplerian elements: AFSPC